Location: Wien
(48.2082°N, 16.3738°E)
Time: 18:44:00
(UTC+01:00)

Envisat - Pass Details

Date: 01 November 2019
Orbit: 764 x 766 km, 98.1° (Epoch: 19 November)

Event Time Altitude Azimuth Distance (km) Brightness Sun altitude
Rises 17:44:10 0° 163° (SSE) 3,220 6.1 -11.7°
Reaches altitude 10° 17:46:28 10° 163° (SSE) 2,298 5.4 -12.1°
Maximum altitude 17:51:32 86° 75° (ENE) 774 3.0 -13.0°
Drops below altitude 10° 17:56:39 10° 347° (NNW) 2,314 5.6 -13.8°
Sets 17:58:58 0° 347° (NNW) 3,244 6.3 -14.2°
